Regional Weather Roundup
Issued by NWS Wakefield, VA

Home | Current Version | Previous Version | Text Only | Print | Product List | Glossary On
Versions: 1 2 3 4 5 6 7 8 9 10 11 12 13 14 15 16 17 18 19 20 21 22 23 24 25 26 27
000
ASUS41 KAKQ 202215
RWRAKQ

REGIONAL WEATHER ROUNDUP
NATIONAL WEATHER SERVICE WAKEFIELD VA
500 PM EST FRI JAN 20 2017

Note: "fair" indicates few or no clouds below 12,000 feet with no
significant weather and/or obstructions to visibility. * = Denotes
station may not report precipitation (e.g., rain,snow,etc.),
thunder or fog.

VAZ042-051-052>054-056-202300-
NORTHERN VIRGINIA

CITY           SKY/WX    TMP DP  RH WIND       PRES   REMARKS
WASH NATIONAL  CLOUDY    48  45  89 SE5       29.88S
DULLES         CLOUDY    47  43  86 SE6       29.86R
FORT BELVOIR   CLOUDY    47  45  90 SE5       29.87S
QUANTICO       CLOUDY    47  46  97 CALM      29.88S
FREDERICKSBRG* CLOUDY    49  49 100 S5        29.86S
STAFFORD*      CLOUDY    48  48  98 S3        29.90S
WARRENTON      CLOUDY    51  45  81 SE3       29.85S
CULPEPER*      CLOUDY    51  47  88 CALM      29.87R
MANASSAS*      CLOUDY   N/A N/A N/A S6        29.86F
LEESBURG*      CLOUDY    50  48  93 SE7       29.87R
WINCHESTER     PTCLDY    48  43  81 E5        29.83R
FRONT ROYAL*   FAIR      50  45  81 NE5       29.80R
LURAY*         FAIR      55  50  82 SW6       29.80S
$$

VAZ048-049-060>072-079>083-202300-
CENTRAL AND SOUTH CENTRAL VIRGINIA

CITY           SKY/WX    TMP DP  RH WIND       PRES   REMARKS
RICHMOND       CLOUDY    48  47  96 SE6       29.87S FOG
CHESTERFIELD*  CLOUDY    48  34  57 E3        29.88S
PETERSBURG*    CLOUDY    48  46  93 CALM      29.88S FOG
HANOVER        CLOUDY    49  45  86 CALM      29.88S FOG
TAPPAHANNOCK*  CLOUDY    48  48 100 E5        29.89R FOG
QUINTON*       CLOUDY    48  48 100 SE6       29.86F
CHARLOTTSVILLE CLOUDY    51  47  86 S6        29.83S
GORDONSVILLE*  CLOUDY    49  48  96 CALM      29.84R
ORANGE*          N/A     50  50 100 CALM      29.87R
LOUISA*        CLOUDY    52  50  93 CALM      29.85R
BUMPASS*       CLOUDY    48  48 100 S7        29.86R
FARMVILLE*     CLOUDY    51  51  99 CALM      29.85R FOG
CREWE*         CLOUDY    50  50 100 CALM      29.86S
FORT PICKETT*  CLOUDY    49  46  88 S3        29.87R
CHASE CITY*    CLOUDY    50  49  95 CALM      29.87R
CLARKSVILLE*   CLOUDY    48  48 100 CALM      29.86S VSB 1
SOUTH HILL*    CLOUDY    49  49 100 CALM      29.92R
LAWRENCEVILLE* CLOUDY    48  47  97 CALM      29.87R
EMPORIA*       CLOUDY    46  46 100 CALM      29.89R FOG
$$

VAZ088>098-202300-
SOUTHEAST VIRGINIA

CITY           SKY/WX    TMP DP  RH WIND       PRES   REMARKS
NORFOLK        LGT RAIN  47  45  93 NE6       29.88R FOG
VIRGINIA BEACH CLOUDY    47  44  90 E6        29.87S
NORFOLK NAVAL  DRIZZLE   47  45  93 E9        29.89S FOG
WEST POINT*    CLOUDY    48  47  97 E5        29.90R
SALUDA*        CLOUDY    44  44 100 E3        29.88F
NEWPORT NEWS   CLOUDY    47  45  93 E6        29.89R FOG
LANGLEY AFB    CLOUDY    46  46 100 E8        29.88R
FORT EUSTIS    CLOUDY    48  46  93 E3        29.86R
WILLIAMSBURG*  CLOUDY    50  48  93 CALM      29.89S
HR EXEC AP*    CLOUDY    48  45  87 SE7       29.86S
FRANKLIN*      CLOUDY    49  47  95 E3        29.88S
US460-WAKEFLD  CLOUDY    49  48  97 E3        29.88R FOG
$$

VAZ020-022-025-037-045-202300-
WEST CENTRAL AND SOUTHWEST VIRGINIA

CITY           SKY/WX    TMP DP  RH WIND       PRES   REMARKS
STAUNTON*      CLEAR     53  47  79 SW6       29.84R
WAYNESBORO*    FAIR      53  46  79 CALM      29.83R
HOT SPRINGS VA CLEAR     52  48  87 W7        29.81F
LYNCHBURG      CLOUDY    49  47  93 SW5       29.86R
DANVILLE       CLOUDY    51  50  96 SW3       29.86R
SOUTH BOSTON*  CLOUDY    51  49  95 CALM      29.87R
MARTINSVILLE   CLOUDY    51  49  92 CALM      29.88R
ROANOKE        MOCLDY    50  47  89 SE7       29.85S
BLACKSBURG     CLEAR     53  51  92 CALM      29.86R
DUBLIN*        CLOUDY    59  52  76 NE3       29.84R
MARION*        CLOUDY    58  52  81 W7        29.86R
HILLSVILLE*    PTCLDY    58  50  73 CALM      29.82F
RICHLANDS*     FAIR     N/A N/A N/A W8        29.82S
WISE*          PTCLDY    59  45  58 SW14      29.83R
ABINGDON*      PTCLDY    61  52  72 W5        29.82S
$$

MDZ021>025-VAZ099-100-202300-
SOUTHERN MARYLAND AND THE DELMARVA PENINSULA

CITY           SKY/WX    TMP DP  RH WIND       PRES   REMARKS
PATUXENT RIVER CLOUDY    45  44  97 SE6       29.89S FOG
BAY BRIDGE APT CLOUDY    45  43  93 SE7       29.88F FOG
LEONARDTOWN    CLOUDY    45  43  93 SE7       29.89F
DOVER          CLOUDY    43  43 100 E7        29.89F
GEORGETOWN     CLOUDY    46  44  93 SE6       29.90F FOG
EASTON         CLOUDY    46  45  93 S3        29.93R
CAMBRIDGE      CLOUDY    45  43  93 CALM      29.90R
SALISBURY      CLOUDY    46  44  93 SE6       29.90S FOG
OCEAN CITY     CLOUDY    45  44  97 SE3       29.91F FOG
WALLOPS ISLAND CLOUDY    46  45  96 SE6       29.91F FOG
ACCOMACK*      CLOUDY    46  45  94 SE5       29.89F FOG
$$

NCZ012>017-030>032-202300-
NORTH CENTRAL AND EASTERN NORTH CAROLINA

CITY           SKY/WX    TMP DP  RH WIND       PRES   REMARKS
ROANOKE RAPIDS CLOUDY    50  50 100 CALM      29.88R FOG
RALEIGH        MOCLDY    59  55  87 W6        29.86R
ELIZABETH CITY CLOUDY    50  48  93 E6        29.87S
AHOSKIE*         N/A     49  49  97 CALM      29.87S
EDENTON*       CLOUDY    52  49  89 CALM      29.87S
CURRITUCK*     CLOUDY    49  49 100 E6        29.88S
KILL DEVIL HLS NOT AVBL
MANTEO         CLOUDY    50  50 100 NE7       29.86S
CAPE HATTERAS  CLOUDY    63  60  90 SW7       29.82F FOG
TARBORO*       NOT AVBL
GOLDSBORO      MOCLDY    65  60  85 N8        29.83R
WASHINGTON     PTCLDY    58  55  87 CALM        N/A
GREENVILLE     MOCLDY    57  55  94 N5        29.89R
NEW BERN       CLOUDY    69  59  70 NW3       29.85R
WILMINGTON     PTCLDY    70  61  73 S9        29.83R
$$

VAZ048-202300-
ELSEWHERE

CITY           SKY/WX    TMP DP  RH WIND       PRES   REMARKS
HARRISBURG PA  CLOUDY    41  40  96 E5        29.87S FOG
BALTIMORE      CLOUDY    44  43  96 SE6       29.88F
ANNAPOLIS      CLOUDY    43  40  89 SE5       29.88F FOG
ANDREWS AFB    CLOUDY    46  44  94 SE5       29.86S
PHILADELPHIA   CLOUDY    41  39  93 E3        29.92F FOG
HENDERSON NC   CLOUDY    50  49  96 CALM      29.86S FOG
GREENSBORO     CLOUDY    55  53  93 W5        29.85R
ROCKY MOUNT    PTCLDY    54  53  97 CALM      29.86R
$$

VAZ100-202300-
MARINE

STATION/POSITION TIME  TEMP    WIND        PRES    WAVE   SWELL
                       AIR SEA DIR/SP/G            HT/PER HT/PER
                 (UTC) (F)     (DEG/KT/KT) (MB)    (FT/S) (FT/S)
CAPE MAY NJ      2148   43 41   90/  5/  7 1012.6F
LEWES DE         2148   44 42  110/  4/  5 1012.4F
OCEAN-CITY-INLET 2148   45 42  140/  4/  5 1013.0F
WACHAPREAGUE VA  2148   46 47  110/  5/  6 1012.2F
THOMAS POINT MD  2200   44 39  140/  8/  8   N/A
GOOSES REEF MD   2150   42     140/  8/ 10 1012.5F
COVE POINT MD    2148   43     190/  8/ 10 1012.8S
SOLOMONS ISLAND  2148   45 41  150/  5/  6   N/A
BISHOPS HEAD MD  2148   44 44  140/  8/ 11 1012.5R
PINEY POINT MD   2148          120/  9/ 10   N/A
POTOMAC MD       2150   42     170/  4/  6 1011.2F
CAMBRIDGE MD     2148   48 40  200/  2/  5 1011.8R
LEWISETTA VA     2148   47 44  170/  6/  7 1011.7F
RAPPAHANNOCK LGT 2148           90/  7/  8 1012.7S
STINGRAY PT      2150   43     130/  4/  6 1012.5S
YORK RVR RNG VA  2148   44     110/  8/  8 1011.3R
YORKTOWN VA      2148   45 42  110/  6/  9 1011.7R
JAMESTOWN VA     2150   48     120/  6/  8   N/A
DOMINION TERM VA 2148   45     360/  2/  5 1011.9R
KIPTOPEKE VA     2148      44   90/  6/  8   N/A
CHES BAY BRIDGE  2148   45 43   80/  8/  9 1011.7R
CAPE HENRY VA    2148   46      70/  9/ 11   N/A
WILLOUBY STN VA  2148   45      80/  8/  9 1012.6R
S CRANEY ISL VA  2148   47     100/  7/  8 1011.5R
CAPE HENRY BUOY  2142      48                N/A     3/11   2/11
OFFSHORE WE BUOY 2151      49                N/A     4/11   2/11
64NM E OF VA BCH 2150   54 58   60/ 16/ 19 1011.4F   5/12   5/12
DUCK PIER NC     2148   48 45   50/ 10/ 11 1010.7R
44100 DUCK FRF   2135      48                N/A     4/11   3/11
44056 DUCK FRF   2130      45                N/A     4/13   3/13
OREGON INLET NC  2148           50/  8/ 11 1010.5F
HATTERAS NC      2148   63 55  200/  5/  7 1009.6F
DIAMOND SHLS NC  2150   72 76  230/ 16/ 21 1009.7R   6/13   5/13
CAPE LOOKOUT NC  2100   66     230/  6/  8 1010.0F
$$




USA.gov is the U.S. government's official web portal to all federal, state and local government web resources and services.